Weather History for KFMN - May, 2014

Change the Weather History Date:

Wednesday, May 7, 2014

  Actual Average (KDRO) Record (KDRO)
Temperature  
Mean Temperature 54 °F 50 °F  
Max Temperature 64 °F 67 °F - ()
Min Temperature 44 °F 33 °F - ()
Degree Days  
Heating Degree Days 11 15  
Month to date heating degree days 109  
Since 1 July heating degree days 6745  
Cooling Degree Days 0 0  
Month to date cooling degree days 0  
Year to date cooling degree days 0  
Growing Degree Days 4 (Base 50)    
Moisture  
Dew Point 19 °F    
Average Humidity 25    
Maximum Humidity 56    
Minimum Humidity 8    
Precipitation  
Precipitation 0.01 in 0.04 in - ()
Month to date precipitation 0.30  
Year to date precipitation 4.93  
Sea Level Pressure  
Sea Level Pressure 29.71 in    
Wind  
Wind Speed 13 mph (WSW)    
Max Wind Speed 31 mph    
Max Gust Speed 40 mph    
Visibility 9 miles    
Events      
T = Trace of Precipitation, MM = Missing Value Source: NWS Daily Summary

Daily Weather History Graph

Daily Weather History Graph

Search for Another Location

Airport or City:

Trip Planner

Search our weather history database for the weather conditions in past years. The results will help you decide how hot, cold, wet, or windy it might be!

Date:

Astronomy

May. 07, 2014 Rise Set
Actual Time 6:12 AM MDT 8:06 PM MDT
Civil Twilight 5:44 AM MDT 8:35 PM MDT
Nautical Twilight 5:10 AM MDT 9:09 PM MDT
Astronomical Twilight 4:33 AM MDT 9:46 PM MDT
Moon 1:25 PM MDT (5/7) 2:02 AM MDT (5/7)
Length of Visible Light 14h 50m
Length of Day
13h 54m
First Quarter, 56% of the Moon is Illuminated
May 7
First Quarter
May 14
Full
May 21
Last Quarter
May 28
New
Jun 5
First Quarter

Hourly Weather History & Observations

Time (MDT) Temp. Windchill Dew Point Humidity Pressure Visibility Wind Dir Wind Speed Gust Speed Precip Events Conditions
12:53 AM 52.0 °F - 16.0 °F 24% 29.62 in 10.0 mi WSW 5.8 mph - N/A   Clear
1:53 AM 50.0 °F - 15.1 °F 25% 29.62 in 10.0 mi West 4.6 mph - N/A   Clear
3:53 AM 42.1 °F 39.2 °F 15.1 °F 34% 29.66 in 10.0 mi East 4.6 mph - N/A   Clear
4:53 AM 42.1 °F 39.2 °F 18.0 °F 38% 29.67 in 10.0 mi Variable 4.6 mph - N/A   Clear
6:53 AM 46.0 °F 43.1 °F 24.1 °F 42% 29.69 in 10.0 mi SSW 5.8 mph - N/A   Clear
7:53 AM 51.1 °F - 24.1 °F 35% 29.70 in 10.0 mi SSW 10.4 mph - N/A   Clear
8:53 AM 54.0 °F - 21.0 °F 28% 29.70 in 10.0 mi SSW 15.0 mph 21.9 mph N/A   Clear
9:53 AM 55.0 °F - 19.0 °F 24% 29.71 in 10.0 mi SSW 18.4 mph - N/A   Clear
12:53 PM 61.0 °F - 17.1 °F 18% 29.68 in 10.0 mi SSW 19.6 mph 31.1 mph N/A   Mostly Cloudy
1:53 PM 61.0 °F - 17.1 °F 18% 29.66 in 10.0 mi SSW 18.4 mph 25.3 mph N/A   Partly Cloudy
2:53 PM 61.0 °F - 18.0 °F 19% 29.65 in 10.0 mi West 21.9 mph 28.8 mph N/A   Scattered Clouds
3:53 PM 59.0 °F - 16.0 °F 19% 29.68 in 7.0 mi WSW 31.1 mph 40.3 mph N/A   Mostly Cloudy
3:58 PM 55.9 °F - 19.9 °F 25% 29.76 in 1.8 mi West 28.8 mph 40.3 mph N/A   Haze
4:06 PM 55.0 °F - 21.0 °F 27% 29.77 in 1.0 mi West 29.9 mph 40.3 mph N/A   Haze
4:15 PM 54.0 °F - 21.0 °F 28% 29.77 in 2.0 mi WSW 23.0 mph 40.3 mph N/A   Haze
4:24 PM 55.9 °F - 21.9 °F 27% 29.77 in 10.0 mi WSW 25.3 mph 32.2 mph N/A   Mostly Cloudy
4:53 PM 57.0 °F - 19.0 °F 23% 29.70 in 10.0 mi West 16.1 mph 26.5 mph N/A   Scattered Clouds
5:53 PM 59.0 °F - 14.0 °F 17% 29.68 in 10.0 mi West 21.9 mph 28.8 mph N/A   Partly Cloudy
6:53 PM 57.0 °F - 12.9 °F 18% 29.70 in 10.0 mi WSW 17.3 mph 23.0 mph 0.00 in   Mostly Cloudy
7:53 PM 55.9 °F - 9.0 °F 15% 29.71 in 10.0 mi West 12.7 mph 19.6 mph N/A   Mostly Cloudy
8:53 PM 54.0 °F - 12.9 °F 20% 29.73 in 10.0 mi West 16.1 mph 24.2 mph N/A   Mostly Cloudy
9:53 PM 53.1 °F - 18.0 °F 25% 29.76 in 10.0 mi West 16.1 mph - N/A   Mostly Cloudy
10:53 PM 51.1 °F - 26.1 °F 38% 29.80 in 10.0 mi WNW 23.0 mph 31.1 mph N/A   Overcast
11:53 PM 46.0 °F 38.8 °F 30.9 °F 56% 29.83 in 10.0 mi West 18.4 mph 24.2 mph N/A   Partly Cloudy